This demonstration page uses our WeatherBlox Daily Observations layout. Learn more.

Left ArrowRight Arrow

39.92423, -83.80882

Hourly Observations for November 17, 2018

Temp ( °F °C ) Dew Point ( °F °C ) Humidity (%) Winds ( mph kmh ) Pressure ( in mb ) Visibility ( mi km ) Precip ( " mm )
12:56 am 00:56 Cloudy 36 2.2 34 1.1 93 93 SW 5 7 30.19 1022 8 12.87472 N/A
1:56 am 01:56 Cloudy with Mist and Fog 36 2.2 35 1.7 97 97 WSW 6 9 30.21 1023 6 9.65604 N/A
2:56 am 02:56 Cloudy with Mist and Fog 35 1.7 35 1.7 100 100 WSW 5 7 30.22 1024 5 8.0467 N/A
3:56 am 03:56 Cloudy with Mist and Fog 35 1.7 34 1.1 96 96 SW 5 7 30.24 1024 6 9.65604 N/A
4:56 am 04:56 Cloudy 35 1.7 34 1.1 96 96 SW 5 7 30.25 1024 7 11.26538 N/A
5:56 am 05:56 Cloudy 36 2.2 32 undefined 86 86 WNW 6 9 30.27 1025 10 16.0934 N/A
6:56 am 06:56 Cloudy 35 1.7 33 0.6 93 93 N N/A 30.28 1025 9 14.48406 N/A
7:56 am 07:56 Cloudy with Mist and Fog 35 1.7 34 1.1 96 96 SSW 3 6 30.29 1026 6 9.65604 N/A
8:56 am 08:56 Cloudy 36 2.2 33 0.6 89 89 S 5 7 30.3 1026 7 11.26538 N/A
9:56 am 09:56 Cloudy 37 2.8 32 undefined 82 82 SSE 8 13 30.31 1026 9 14.48406 N/A
10:56 am 10:56 Cloudy 38 3.3 33 0.6 83 83 SSE 7 11 30.31 1026 8 12.87472 N/A
11:56 am 11:56 Cloudy 38 3.3 34 1.1 86 86 SSW 6 9 30.3 1026 9 14.48406 N/A
12:56 pm 12:56 Cloudy 39 3.9 34 1.1 82 82 S 7 11 30.28 1025 10 16.0934 N/A
1:56 pm 13:56 Cloudy 40 4.4 35 1.7 83 83 SSE 7 11 30.27 1025 9 14.48406 N/A
2:56 pm 14:56 Cloudy 40 4.4 34 1.1 79 79 SSE 3 6 30.28 1025 9 14.48406 N/A
3:56 pm 15:56 Cloudy 41 5 34 1.1 76 76 E 3 6 30.27 1025 10 16.0934 N/A
4:56 pm 16:56 Cloudy 40 4.4 35 1.7 83 83 ENE 3 6 30.28 1025 10 16.0934 N/A
5:56 pm 17:56 Cloudy 38 3.3 35 1.7 89 89 NE 5 7 30.29 1026 10 16.0934 N/A
6:56 pm 18:56 Mostly Cloudy 37 2.8 35 1.7 93 93 ENE 6 9 30.29 1026 7 11.26538 N/A
7:56 pm 19:56 Cloudy with Mist and Fog 36 2.2 35 1.7 97 97 ENE 3 6 30.3 1026 6 9.65604 N/A
9:56 pm 21:56 Cloudy 37 2.8 35 1.7 93 93 NE 6 9 30.29 1026 7 11.26538 N/A
10:32 pm 22:32 Cloudy 36 2 36 2 100 100 E 3 6 30.33 1027 7 11.26538 N/A
10:56 pm 22:56 Cloudy 36 2.2 35 1.7 97 97 ENE 5 7 30.28 1026 7 11.26538 N/A
11:56 pm 23:56 Cloudy with Mist and Fog 35 1.7 34 1.1 96 96 ENE 5 7 30.28 1025 6 9.65604 N/A

Powered by AerisWeather